Weather History for Ravenna, OH

Change the Weather History Date:

Thursday, August 2, 2012

  Actual Average (KCAK) Record (KCAK)
Temperature  
Mean Temperature 69 °F 72 °F  
Max Temperature 84 °F 81 °F 96 °F (1930)
Min Temperature 54 °F 62 °F 50 °F (1976)
Degree Days  
Heating Degree Days 0 0  
Month to date heating degree days 0  
Since 1 June heating degree days 55  
Since 1 July heating degree days 6  
Cooling Degree Days 4 7  
Month to date cooling degree days 14  
Year to date cooling degree days 413  
Since 1 June cooling degree days 371  
Growing Degree Days 19 (Base 50)    
Moisture  
Dew Point 59 °F    
Average Humidity 70    
Maximum Humidity 100    
Minimum Humidity 35    
Precipitation  
Precipitation 0.00 in 0.12 in 1.51 in (1964)
Month to date precipitation 0.24  
Year to date precipitation 23.88  
Snow  
Snow 0.00 in 0.00 in - ()
Month to date snowfall 0.0  
Since 1 June snowfall 0.0  
Since 1 July snowfall 0.0  
Snow Depth -    
Sea Level Pressure  
Sea Level Pressure 29.94 in    
Wind  
Wind Speed 1 mph (SSE)    
Max Wind Speed 5 mph    
Max Gust Speed -    
Visibility 9 miles    
Events      
T = Trace of Precipitation, MM = Missing Value Source: NWS Daily Summary

Daily Weather History Graph

Daily Weather History Graph

Search for Another Location

Airport:

Trip Planner

Search our weather history database for the weather conditions in past years. The results will help you decide how hot, cold, wet, or windy it might be!

Date:

Astronomy

Aug. 02, 2012 Rise Set
Actual Time 6:21 AM EDT 8:39 PM EDT
Civil Twilight 5:50 AM EDT 9:10 PM EDT
Nautical Twilight 5:12 AM EDT 9:48 PM EDT
Astronomical Twilight 4:30 AM EDT 10:30 PM EDT
Moon 8:43 PM EDT (8/2) 6:58 AM EDT (8/2)
Length of Visible Light 15h 19m
Length of Day
14h 18m
Full, 100% of the Moon is Illuminated
Aug 2
Full
Aug 9
Last Quarter
Aug 17
New
Aug 24
First Quarter
Aug 31
Full

Hourly Weather History & Observations

Time (EDT) Temp. Heat Index Dew Point Humidity Pressure Visibility Wind Dir Wind Speed Gust Speed Precip Events Conditions
12:33 AM 59.5 °F - 59.5 °F 100% 29.94 in 10.0 mi Calm Calm - N/A   Unknown
1:14 AM 60.4 °F - 60.8 °F 100% 29.93 in 10.0 mi Calm Calm - N/A   Unknown
1:34 AM 60.1 °F - 60.3 °F 100% 29.93 in 10.0 mi Calm Calm - N/A   Unknown
1:54 AM 58.1 °F - 58.1 °F 100% 29.93 in 10.0 mi Calm Calm - N/A   Unknown
2:14 AM 57.2 °F - 57.4 °F 100% 29.93 in 7.0 mi Calm Calm - N/A   Unknown
2:33 AM 57.9 °F - 57.9 °F 100% 29.93 in 7.0 mi Calm Calm - N/A   Unknown
2:53 AM 58.1 °F - 58.3 °F 100% 29.92 in 7.0 mi Calm Calm - N/A   Clear
3:14 AM 57.4 °F - 57.4 °F 100% 29.92 in 4.0 mi Calm Calm - N/A   Clear
3:34 AM 57.0 °F - 57.2 °F 100% 29.92 in 1.8 mi Calm Calm - N/A   Unknown
3:53 AM 57.0 °F - 57.2 °F 100% 29.92 in 7.0 mi Calm Calm - N/A   Clear
4:14 AM 54.7 °F - 54.9 °F 100% 29.91 in 2.0 mi Calm Calm - N/A   Clear
4:53 AM 55.4 °F - 55.4 °F 100% 29.92 in 5.0 mi Calm Calm - N/A   Clear
5:14 AM 57.7 °F - 57.7 °F 100% 29.93 in 5.0 mi WNW 3.5 mph - N/A   Clear
5:33 AM 58.1 °F - 58.3 °F 100% 29.95 in 7.0 mi Calm Calm - N/A   Clear
5:53 AM 58.5 °F - 58.8 °F 100% 29.94 in 7.0 mi Calm Calm - N/A   Clear
6:14 AM 55.2 °F - 55.4 °F 100% 29.93 in 1.5 mi Calm Calm - N/A   Unknown
6:33 AM 55.6 °F - 55.8 °F 100% 29.94 in 2.0 mi Calm Calm - N/A   Clear
7:14 AM 57.6 °F - 57.7 °F 100% 29.94 in 7.0 mi Calm Calm - N/A   Clear
7:33 AM - - - N/A% 29.95 in 5.0 mi Calm Calm - N/A   Clear
7:54 AM 61.9 °F - 62.1 °F 100% 29.95 in 3.0 mi Calm Calm - N/A   Clear
8:14 AM 63.7 °F - 63.9 °F 100% 29.95 in 7.0 mi Calm Calm - N/A   Clear
8:33 AM 66.7 °F - 66.9 °F 100% 29.95 in 10.0 mi Calm Calm - N/A   Clear
8:53 AM 68.0 °F - 67.1 °F 97% 29.95 in 10.0 mi Calm Calm - N/A   Clear
9:14 AM 69.8 °F - 68.2 °F 95% 29.95 in 10.0 mi East 4.6 mph - N/A   Clear
9:33 AM 71.6 °F - 64.8 °F 79% 29.95 in 10.0 mi Calm Calm - N/A   Clear
9:53 AM 72.0 °F - 61.7 °F 70% 29.95 in 10.0 mi Calm Calm - N/A   Clear
10:14 AM 74.7 °F - 61.0 °F 62% 29.96 in 10.0 mi Calm Calm - N/A   Clear
10:33 AM 75.2 °F - 61.2 °F 62% 29.96 in 10.0 mi Calm Calm - N/A   Clear
10:54 AM 75.6 °F - 57.4 °F 53% 29.96 in 10.0 mi Calm Calm - N/A   Clear
11:14 AM 76.8 °F - 56.7 °F 50% 29.96 in 10.0 mi Calm Calm - N/A   Clear
11:33 AM 77.2 °F - 56.5 °F 49% 29.96 in 10.0 mi Calm Calm - N/A   Clear
11:53 AM 77.7 °F - 57.2 °F 49% 29.97 in 10.0 mi Calm Calm - N/A   Clear
12:33 PM 79.0 °F - 56.5 °F 46% 29.96 in 10.0 mi Calm Calm - N/A   Clear
12:53 PM 81.7 °F 81.5 °F 57.0 °F 43% 29.96 in 10.0 mi Calm Calm - N/A   Clear
1:14 PM 81.0 °F 80.9 °F 56.7 °F 43% 29.96 in 10.0 mi Calm Calm - N/A   Clear
1:33 PM 80.8 °F 80.9 °F 56.8 °F 44% 29.96 in 10.0 mi South 3.5 mph - N/A   Clear
1:54 PM 82.0 °F 81.8 °F 57.4 °F 43% 29.96 in 10.0 mi Calm Calm - N/A   Clear
2:14 PM 81.5 °F 80.9 °F 54.5 °F 39% 29.95 in 10.0 mi WSW 3.5 mph - N/A   Clear
2:33 PM 82.9 °F 82.3 °F 56.3 °F 40% 29.95 in 10.0 mi Calm Calm - N/A   Clear
2:53 PM 82.9 °F 82.7 °F 58.3 °F 43% 29.94 in 10.0 mi ENE 4.6 mph - N/A   Clear
3:14 PM 84.2 °F 83.2 °F 56.3 °F 38% 29.94 in 10.0 mi SW 4.6 mph - N/A   Clear
3:33 PM 84.0 °F 82.9 °F 55.4 °F 37% 29.93 in 10.0 mi Calm Calm - N/A   Clear
3:53 PM 84.6 °F 83.5 °F 56.1 °F 38% 29.92 in 10.0 mi South 3.5 mph - N/A   Clear
4:14 PM 84.7 °F 83.3 °F 54.1 °F 35% 29.92 in 10.0 mi SE 4.6 mph - N/A   Clear
4:54 PM 84.7 °F 83.3 °F 54.3 °F 35% 29.92 in 10.0 mi South 3.5 mph - N/A   Clear
5:14 PM 84.6 °F 83.2 °F 54.9 °F 36% 29.92 in 10.0 mi SSE 4.6 mph - N/A   Clear
5:33 PM 84.4 °F 83.2 °F 55.2 °F 37% 29.92 in 10.0 mi SSW 3.5 mph - N/A   Clear
6:14 PM 84.4 °F 83.5 °F 56.7 °F 39% 29.92 in 10.0 mi Calm Calm - N/A   Clear
6:33 PM 83.8 °F 83.0 °F 56.5 °F 39% 29.91 in 10.0 mi Calm Calm - N/A   Clear
6:54 PM 83.7 °F 83.0 °F 57.0 °F 40% 29.91 in 10.0 mi Calm Calm - N/A   Clear
7:13 PM 82.2 °F 82.6 °F 59.9 °F 47% 29.91 in 10.0 mi Calm Calm - N/A   Clear
7:33 PM 81.0 °F 81.8 °F 61.5 °F 51% 29.91 in 10.0 mi Calm Calm - N/A   Clear
7:54 PM 80.2 °F 81.1 °F 60.4 °F 51% 29.92 in 10.0 mi Calm Calm - N/A   Clear
8:14 PM 78.3 °F - 61.0 °F 55% 29.92 in 10.0 mi Calm Calm - N/A   Clear
8:33 PM 76.8 °F - 60.8 °F 58% 29.92 in 10.0 mi Calm Calm - N/A   Clear
8:54 PM 74.1 °F - 61.0 °F 63% 29.92 in 10.0 mi Calm Calm - N/A   Unknown
9:14 PM 71.2 °F - 62.2 °F 73% 29.92 in 10.0 mi Calm Calm - N/A   Unknown
9:33 PM 71.4 °F - 61.0 °F 70% 29.92 in 10.0 mi Calm Calm - N/A   Unknown
9:53 PM 69.3 °F - 61.2 °F 75% 29.94 in 10.0 mi Calm Calm - N/A   Unknown
10:14 PM 68.0 °F - 61.7 °F 80% 29.94 in 10.0 mi Calm Calm - N/A   Unknown
10:33 PM 66.9 °F - 61.7 °F 83% 29.95 in 10.0 mi Calm Calm - N/A   Unknown
10:54 PM 67.6 °F - 61.0 °F 79% 29.95 in 10.0 mi East 3.5 mph - N/A   Unknown
11:14 PM 68.5 °F - 60.4 °F 75% 29.95 in 10.0 mi Calm Calm - N/A   Unknown
11:33 PM 67.3 °F - 61.0 °F 80% 29.94 in 10.0 mi Calm Calm - N/A   Unknown
11:54 PM 68.9 °F - 59.5 °F 72% 29.94 in 10.0 mi East 3.5 mph - N/A   Unknown